Other Surface Observations
Issued by NWS

Home | Current Version | Previous Version | Text Only | Print | Product List | Glossary On
Versions: 1 2 3 4 5 6 7 8 9 10 11 12 13 14 15 16 17 18 19 20 21 22 23 24 25 26 27 28 29 30 31 32 33 34 35 36 37 38 39 40 41 42 43 44 45 46 47 48 49 50
000
SXUS52 KTAE 080010
OSOTAE
OSOTAE
North Florida/South Alabama/Southwest Georgia Weather Roundup
National Weather Service Tallahassee Florida
800 PM EDT TUE JUL 07 2015

Note: "fair" indicates few or no clouds below 12,000 feet with no
significant weather and/or obstructions to visibility.

!FLZ017-115-028-034-025-080100
...North Florida...

CITY           SKY/WX    TMP DP  RH WIND       PRES   REMARKS
TALLAHASSEE    PTCLDY    89  74  60 SW12      30.10R HX  98
APALACHICOLA   PTCLDY    88  73  61 W8        30.11S HX  95
PERRY          MOCLDY    85  73  65 S3        30.11R HX  92
CROSS CITY       N/A     86  74  67 SW5       30.11R HX  94
JACKSONVILLE   MOCLDY    76  72  87 S7        30.14R
$$

!FLZ112-006-005-002-011-080100
...Florida Panhandle...

CITY           SKY/WX    TMP DP  RH WIND       PRES   REMARKS
MARIANNA       CLEAR     90  74  59 NW5       30.10R HX  99
BONIFAY        FAIR      85  78  80 CALM      30.11R HX  96
PANAMA CITY NW FAIR      86  73  65 SW7       30.11R HX  93
TYNDALL AFB    CLOUDY    85  74  70 W8        30.12R HX  92
TYND DRONE APT FAIR      84  76  76 W3        30.11S HX  92
DE FUNIAK SPR  FAIR      80  69  69 SW5       30.13S
EGLIN AFB      PTCLDY    86  73  63 SW7       30.11R HX  93
DESTIN         PTCLDY    87  74  64 W6        30.12R HX  95
HURLBURT       PTCLDY    86  74  66 VRB5      30.11R HX  93
CRESTVIEW      PTCLDY    88  74  63 SW5       30.13S HX  96
PENSACOLA      CLEAR     85  73  67 SW9       30.11S HX  91
$$

!ALZ063-066-080100
...South Alabama...

CITY           SKY/WX    TMP DP  RH WIND       PRES   REMARKS
DOTHAN         CLEAR     88  70  55 W5        30.15R HX  93
OZARK CAIRNS   CLEAR     89  71  56 S2        30.11R HX  94
FT RUCKER HELI CLEAR     87  74  64 CALM      30.10S HX  95
RUCKER HELI 3  FAIR      88  69  53 W3        30.13S HX  92
RUCKER HELI 2  FAIR      88  72  58 CALM      30.10R HX  94
FLORALA APT    LGT RAIN  82  70  65 VRB3      30.15R
ANDALUSIA      PTCLDY    90  73  58 CALM      30.11R HX  98
TROY           CLEAR     86  77  74 CALM      30.13R HX  97
EUFALA         FAIR      88  76  67 CALM      30.11R HX  99
MOBILE         MOSUNNY   85  74  69 S9        30.12S HX  92
$$

!GAZ120>161-080100
...Southwest and South Central Georgia...

CITY           SKY/WX    TMP DP  RH WIND       PRES   REMARKS
THOMASVILLE    FAIR      86  75  70 CALM      30.12R HX  95
BAINBRIDGE     CLEAR     91  73  55 NW3       30.11R HX 100
MOODY AFB      CLEAR     88  69  54 NE1       30.11R HX  92
VALDOSTA       PTCLDY    87  70  56 CALM      30.11R HX  92
MOULTRIE       CLEAR     88  72  58 CALM      30.12R HX  94
BLAKELY        CLEAR     86  77  74 CALM      30.11S HX  97
ALBANY         MOCLDY    80  69  69 SW7       30.13R
TIFTON         FAIR      88  66  48 W3        30.11R HX  90
FITZGERALD     FAIR      87  74  66 CALM      30.13R HX  95
CORDELE        FAIR      89  73  59 W3        30.12R HX  97
AMERICUS       FAIR      88  70  55 CALM      30.13R HX  92
HOMERVILLE     MOCLDY    86  73  66 SE12G22   30.14R HX  93
$$

!GMZ750-755-770-775-080100
...Coastal and Buoy Obs...

STATION/POSITION TIME  TEMP    WIND        PRES    VSBY  WAVE
                       AIR SEA DIR/SP/G                  HT/PER
                 (UTC) (F)     (DEG/KT/KT) (MB)    (MI)  (FT/S)
KEATON BEACH     0000   86     230/  9/ 10 1019.6R
CEDAR KEY        0000   85     230/  3/  4 1020.3R
C TOWER          0000   83     240/  5/  5 1019.8F
APALACHICOLA BUO 2350   85 86  120/  2/  2 1020.1S         1/10
PANAMA CITY BUOY 2350   84 87  130/  4/  6 1020.8R         1/ 9
MOBILE BUOY      2350   85 89  150/  8/ 10 1020.2R         1/ 5
ORANGE BCH AL BU 2350   85 87  210/  6/  8 1019.2R         1/ 5
$$



USA.gov is the U.S. government's official web portal to all federal, state and local government web resources and services.